Weather Roundup
Issued by NWS Corpus Christi, TX

Home | Current Version | Previous Version | Text Only | Print | Product List | Glossary On
Versions: 1 2 3 4 5 6 7 8 9 10 11 12 13 14 15 16 17 18 19 20 21 22 23 24 25 26 27 28 29 30 31 32 33 34 35 36 37 38 39 40 41 42 43 44 45 46 47 48 49 50
000
ASUS44 KCRP 071310
HRRCRP

SOUTH TEXAS REGIONAL WEATHER ROUNDUP
NATIONAL WEATHER SERVICE CORPUS CHRISTI TX
700 AM CST SUN FEB 07 2016


TXZ229>244-071400-
...CORPUS CHRISTI AREA OBSERVATIONS...

CITY           SKY/WX    TMP DP  RH WIND       PRES   REMARKS
CORPUS CHRISTI CLOUDY    37  33  85 CALM      30.30S
NAS CORPUS CHR CLOUDY    48  44  86 E7        30.30S
ROCKPORT       CLEAR     43  39  86 N3        30.30F FOG
KINGSVILLE NAS CLOUDY    32  29  88 NW6       30.31S
ALICE          CLOUDY    33  28  81 NW3       30.30S
FALFURRIAS     CLOUDY    34  25  68 W5        30.32R
$$

...VICTORIA AREA OBSERVATIONS...

CITY           SKY/WX    TMP DP  RH WIND       PRES   REMARKS
VICTORIA       CLOUDY    31  30  96 W5        30.32R
BEEVILLE       FAIR      37  36  96 N5        30.30S
PLEASANTON     CLOUDY    28  25  87 CALM      30.31S
SAN ANTONIO    PTCLDY    31  26  82 NW6       30.29S
$$

...LAREDO AREA OBSERVATIONS...

CITY           SKY/WX    TMP DP  RH WIND       PRES   REMARKS
LAREDO         CLOUDY    39  27  62 SE6       30.30S
COTULLA        CLOUDY    35  25  66 E5        30.30R
DEL RIO        CLOUDY    36  20  52 E7        30.25S
MCALLEN        CLOUDY    38  30  73 CALM      30.32R
HEBBRONVILLE   NOT AVBL
$$

...OTHER TEXAS OBSERVATIONS...

CITY           SKY/WX    TMP DP  RH WIND       PRES   REMARKS
BROWNSVILLE    CLEAR     40  31  70 CALM      30.32R
HOUSTON        PTCLDY    35  34  96 CALM      30.29F
COL. STATION   CLEAR     31  29  92 W7        30.29R FOG
AUSTIN         CLOUDY    29  27  92 CALM      30.29S
WACO           CLEAR     32  30  92 S7        30.25F
FORT WORTH     CLEAR     33  29  85 S7        30.22S
WICHITA FALLS  CLOUDY    29  25  85 SE7       30.15F
LUBBOCK        CLOUDY    29  14  53 W9        30.10R
EL PASO        MOCLDY    28   8  43 N5        30.28R
$$

...MARINE OBSERVATIONS...

STATION/POSITION TIME  SKY/WX   TEMP    WIND        PRES    VSBY  WAVE   SWELL
                                AIR SEA DIR/SP/G                  HT/PER HT/PER
                 (UTC)          (F)     (DEG/KT/KT) (MB)    (MI)  (FT/S) (FT/S)
PORT ARANSAS     1300            54 58   60/  9/ 10 1026.3F
BUOY 90 E PORT A 1250            58 69   80/  6/  8 1026.1R         2/ 5   2/ 5
BUOY 45 SE BAFFI 1250            60 69   60/ 10/ 14 1025.5R         3/ 6   2/ 6
BUOY 200 E PT IS 1250                                 N/A           7/ 8   5/ 8
BUOY 15 E GALVES 1250            51 59   50/  6/  8 1025.9F         1/ 5   2/ 5
$$



USA.gov is the U.S. government's official web portal to all federal, state and local government web resources and services.